Miscellaneous Local Product
Issued by NWS Hastings, NE

Home | Current Version | Previous Version | Text Only | Print | Product List | Glossary Off
Versions: 1 2 3 4 5 6 7 8 9 10 11 12 13 14 15 16 17 18 19 20 21 22 23 24 25 26 27 28 29 30 31 32 33 34 35 36 37 38 39 40 41 42 43 44 45 46 47 48 49 50

000
AXUS43 KGID 030602
MISGRI

GID CWA HOURLY WEATHER ROUNDUP
NATIONAL WEATHER SERVICE HASTINGS NE
100 AM CDT THU SEP 03 2015

NOTE: "FAIR" INDICATES FEW OR NO CLOUDS BELOW 12,000 FEET WITH NO
SIGNIFICANT WEATHER AND/OR OBSTRUCTIONS TO VISIBILITY.

...SOUTH CENTRAL NEBRASKA...

CITY           SKY/WX    TMP DP  RH WIND       PRES   REMARKS
GRAND ISLAND   FAIR      74  64  71 S10       29.85F
HASTINGS       FAIR      77  63  61 S10       29.86S
KEARNEY        FAIR      73  61  64 S8        29.85S
ORD            CLEAR     69  66  90 CALM      29.83F
YORK           FAIR      73  66  78 S8        29.86S
AURORA         FAIR      74  67  80 S10       29.85F
LEXINGTON      PTCLDY    69  64  85 E6        29.85S
HOLDREGE       FAIR      70  61  72 SE5       29.86R
HEBRON         FAIR      78  63  58 S14G22    29.87S

...NEBRASKA PANHANDLE...

CITY           SKY/WX    TMP DP  RH WIND       PRES   REMARKS
CHADRON        CLEAR     72  44  36 W6        29.83S
ALLIANCE       CLEAR     63  50  62 SE7       29.91S
SCOTTSBLUFF    PTCLDY    68  52  56 E5        29.91S
SIDNEY         PTCLDY    67  48  50 S3        29.96S

...WESTERN AND NORTH CENTRAL NEBRASKA...

CITY           SKY/WX    TMP DP  RH WIND       PRES   REMARKS
VALENTINE      CLEAR     75  60  59 SW12      29.83S
AINSWORTH      CLEAR     72  62  71 S9        29.84F
ONEILL         CLEAR     73  69  89 SE5       29.84F
BROKEN BOW     CLEAR     64  61  90 CALM      29.86S
IMPERIAL       CLEAR     71  56  58 E6        29.87F
NORTH PLATTE   PTCLDY    68  64  87 E6        29.86S
MCCOOK         MOCLDY    76  58  53 SE6       29.84S

...EASTERN NEBRASKA...

CITY           SKY/WX    TMP DP  RH WIND       PRES   REMARKS
NORFOLK        FAIR      74  68  81 S10       29.84S
SO SIOUX CITY  FAIR      72  68  87 SE8       29.84S
TEKAMAH        FAIR      73  70  90 SE7       29.85S
COLUMBUS       FAIR      73  64  73 SE3       29.85F
ALBION         FAIR      71  67  87 SE5       29.85F
OMAHA EPPLEY   FAIR      78  70  76 S14       29.87S
OFFUTT AFB     FAIR      76  70  83 SE7       29.87S
MILLARD        FAIR      76  70  80 SE6       29.87F
LINCOLN        FAIR      74  67  78 S7        29.87S
NEBRASKA CITY  FAIR      74  67  77 S10       29.89S
BEATRICE       FAIR      76  67  72 S10       29.88S
FALLS CITY     FAIR      77  69  76 S9        29.89F

...NORTHERN KANSAS...

CITY           SKY/WX    TMP DP  RH WIND       PRES   REMARKS
GOODLAND       MOCLDY    77  54  44 S14       29.91S
HILL CITY      FAIR      83  58  42 S12       29.85S
NORTON         CLEAR     79  52  38 S10       29.84S
PHILLIPSBURG   CLEAR     81  57  44 CALM      29.85R
SMITH CENTER   CLEAR     75  61  60 SE9       29.86S
HAYS           FAIR      81  57  44 S12G17    29.88R
RUSSELL        FAIR      79  61  53 S15       29.86S
CONCORDIA      FAIR      78  65  63 S18       29.87F
SALINA         FAIR      81  64  56 S14       29.88S
TOPEKA         FAIR      77  68  73 S7        29.93S



USA.gov is the U.S. government's official web portal to all federal, state and local government web resources and services.